Location: *
(31.2983°S, 151.4094°E)
Time: 08:36:10
(UTC+00:00)

Hubble Space Telescope - Visible Passes

Search period start: 18 September 2020 00:00
Search period end: 28 September 2020 00:00
Orbit: 536 x 540 km, 28.5° (Epoch: 17 September)

Date Brightness Start Highest point End Pass type
(mag) Time Alt. Az. Time Alt. Az. Time Alt. Az.
18 Sep 3.1 08:21:47 10° NNE 08:22:12 10° NNE 08:22:38 10° NNE visible
18 Sep 3.4 09:59:10 10° NW 09:59:48 13° NW 09:59:48 13° NW visible
19 Sep 2.9 08:09:23 10° N 08:11:23 13° NNE 08:13:23 10° NE visible
19 Sep 2.7 09:48:15 10° NW 09:50:02 22° NW 09:50:02 22° NW visible
20 Sep 2.0 09:37:23 10° WNW 09:40:12 33° NNW 09:40:12 33° NNW visible
21 Sep 1.3 09:26:34 10° WNW 09:30:19 46° N 09:30:19 46° N visible
22 Sep 1.0 09:15:47 10° WNW 09:19:50 51° N 09:20:21 48° NE visible
23 Sep 1.0 09:05:01 10° WNW 09:09:06 55° N 09:10:22 38° ENE visible
24 Sep 1.0 08:54:15 10° WNW 08:58:22 58° N 09:00:19 28° ENE visible
24 Sep 3.9 10:35:22 10° W 10:35:39 12° W 10:35:39 12° W visible
25 Sep 1.0 08:43:31 10° W 08:47:38 59° N 08:50:16 21° ENE visible
25 Sep 3.5 10:24:41 10° W 10:25:36 16° WNW 10:25:36 16° WNW visible
26 Sep 1.1 08:32:47 10° W 08:36:54 58° N 08:40:12 15° ENE visible
26 Sep 3.1 10:14:01 10° W 10:15:31 20° WNW 10:15:31 20° WNW visible
27 Sep 1.2 08:22:04 10° W 08:26:10 56° N 08:30:08 11° ENE visible
27 Sep 2.8 10:03:24 10° W 10:05:27 23° WNW 10:05:27 23° WNW visible
